Volver al catálogo

STARLINK-35307

ActivoComunicacionesVLEO
NORAD 66013·PAYLOAD·🇺🇸 United States

Lanzado Oct 16, 2025 desde Cape Canaveral Space Force Station

Loading…

Próximos Pases (próximas 24 horas)

TLE

ActualizadoSource: CelesTrak SupGP

Época: Sep 14, 2026, 21:29 UTC

1 66013C 25232J   26257.89562500  .00019965  00000+0  59006-3 0  2576
2 66013  53.1581 301.9698 0001154  89.7183  50.7681 15.34370680    19

Sigue STARLINK-35307 en tiempo real con AllMySat

Download on the App Store